"Pseudo-MPEC" for C4LX002

Created 2021 Jan 14 19:07:10 UT using Find_Orb

Click here for an explanation of pseudo-MPECs

 
 Astrometry: 
     C4LX002  C2021 01 13.32240608 16 16.82 -07 44 48.1    ~1D8M 20.30GVNEOCPG96
     C4LX002  C2021 01 13.32752808 16 16.63 -07 44 32.8    ~1D8M 20.17GVNEOCPG96
     C4LX002  C2021 01 13.33264508 16 16.46 -07 44 18.0    ~1D8M 20.09GVNEOCPG96
     C4LX002  C2021 01 13.33776908 16 16.27 -07 44 03.4    ~1D8M       VNEOCPG96
     C4LX002 KC2021 01 13.42401608 16 13.32 -07 39 51.4    ~1DAb 20.06GVNEOCPI52
     C4LX002 KC2021 01 13.42527808 16 13.27 -07 39 47.7    ~1DAb 19.80GVNEOCPI52
     C4LX002 KC2021 01 13.42654108 16 13.24 -07 39 44.5    ~1DAb 19.73GVNEOCPI52
     C4LX002 KC2021 01 13(EuDRS-wkw]]1R6_^1#m8h;MW9QEjYEeWwsdti0KLm6%IMda8B/P104
     C4LX002 KC2021 01 13d$#BAstrometry=TAahfredacted;Mycd8it=;ATtD[9+s[:#ErZ104
     C4LX002 KC2021 01 13A5hcw0O$0m$t_mHVbC0]gEvLr1Au09UR)xoZ.x^El^cn;K7%bXK^K63
     C4LX002 KC2021 01 13+CoLsZ?N2HL[([3@SY\F=E:2K,83d=rI`AuY!;bg=hF#6fWI#W@HK63
     C4LX002 hC2021 01 14KSsWE-vbYEHTA\06Dw-2T-jjtG9QXYS)fMa147sG\v!WX1GVcUB=L01
     C4LX002 hC2021 01 14b2a63TgkgAuTH6e6M9]/5click8gmJh#gCE*,XEvkyd7f_2ta:w)L01
     C4LX002 hC2021 01 14SZ8herehrY5vH8cE]G+oF(;EFRf+:ltTC#-WoOO)d+CP:E\/kJkdL01
     C4LX002 KC2021 01 14V1ItKoH8KgoA=xJ'$U^_xGual92]#BHLqtA?TYkA(f8'6@_EXa^VH21
     C4LX002 KC2021 01 14bZ=Us)8QLa#w5yi2-d;s#Bcw'bUC!e+[\`.fS_lnci)_LNm6i@m1H21
     C4LX002 KC2021 01 14^jmy6!dA6!(Eg5for^3)!V2=;^lbN[]BGuf:u@*Q*KA+-@Lv%9%IH21
     C4LX002 KC2021 01 14.32941708 15 48.29 -06 55 32.7    ~1E8M 19.39GVNEOCPI52
     C4LX002 KC2021 01 14.33119908 15 48.24 -06 55 27.6    ~1E8M 19.31GVNEOCPI52
     C4LX002 KC2021 01 14.33298308 15 48.17 -06 55 22.3    ~1E8M 19.31GVNEOCPI52
     C4LX002 KC2021 01 147D?O6'XKTr9tfi:ptyv;^]\14a$9AN+eG4U(l'GS:u@]5j1h@MMX474
     C4LX002 KC2021 01 14c8l$+EDjek%@NKGuL!iGuM6?^Y:e,r(D,:#,9nq^s72x9aJnQKCX474
     C4LX002 KC2021 01 14bpu6'N%l%?Je2\qkM)i@kn4B?WT5tJexplanation0P`k%YJK^ju474
     C4LX002 KC2021 01 14IVm_M^fW(-HvuDoSx+';W=a6v1ZUk]2_B_w.pY;rU7KDnV%KK6h2474

Station data:
(104) San Marcello Pistoiese  (N44.063037 E10.804200)  Italy. 0.40-m f/5
   reflector.
(474) Mount John Observatory, Lake Tekapo  (S43.987388 E170.464960)  New
   Zealand.  Observers A. C. Gilmore, P. M. Kilmartin. Measurer P. M.
   Kilmartin. 1.0-m f/7.7 reflector + CCD.
(G96) Mt. Lemmon Survey  (N32.442754 W110.788720)  US/Arizona.  Observers T.
   A. Pruyne, B. M. Africano, E. J. Christensen, G. A. Farneth, D. C. Fuls,
   A. R. Gibbs, A. D. Grauer, H. Gröller, J. A. Johnson, R. A. Kowalski, S.
   M. Larson, G. J. Leonard, D. Rankin, R. L. Seaman, F. C. Shelly. 1.5-m
   reflector + 10K CCD.
(H21) Astronomical Research Observatory, Westfield  (N39.483057 W87.968270)
   US/Illinois. 0.76-m f/3.0 astrograph + CCD.
(I52) Steward Observatory, Mt. Lemmon Station  (N32.442547 W110.788920)
   US/Arizona.  Observers T. A. Pruyne, B. M. Africano, E. J. Christensen, G.
   A. Farneth, D. C. Fuls, A. R. Gibbs, A. D. Grauer, H. Gröller, J. A.
   Johnson, R. A. Kowalski, S. M. Larson, G. J. Leonard, D. Rankin, R. L.
   Seaman, F. C. Shelly. 1.0-m reflector + CCD.
(K63) G. Pascoli Observatory, Castelvecchio Pascoli  (N44.082410 E10.462000)
   Italy.
(L01) Višnjan Observatory, Tičan  (N45.290900 E13.749300)  Croatia.
   Observers K. Korlević, E. Pettarin. Measurer E. Pettarin. 1.0-m f/2.9
   reflector + CCD.

Orbital elements:  C4LX002
   Perihelion 2020 Nov 22.687752 +/- 2.19888 TT = 16:30:21 (JD 2459176.187752)
Epoch 2021 Jan 14.0 TT = JDT 2459228.5   Earth MOID: 0.4653   Ma: 0.0645
M  15.52168845 +/- 0.9924577        (J2000 ecliptic)          AutoNEOCP
n   0.29671231 +/- 0.008322         Peri.  301.00390 +/- 2.4477951
a   2.22627597 +/- 0.0416196        Node   137.29529 +/- 0.3385915
e   0.4018173 +/- 0.00603062        Incl.   24.61811 +/- 0.7895010
P   3.32                   H 19.8   G  0.15   U  9.5  
q 1.33171974 +/- 0.0180413    Q 3.12083220 +/- 0.0702504
From 24 observations 2021 Jan. 13-14 (30.4 hr); mean residual 0".34
Residuals in arcseconds: 
210113 G96  .33+  .29-    210113 104  .55-  .19+    210114 H21  .25-  .11-    
210113 G96  .13+  .12+    210113 K63  .66+  .15-    210114 I52  .14-  .12-    
210113 G96  .22+  .04+    210113 K63  .37+  .19-    210114 I52  .05+  .29-    
210113 G96  .02+  .27-    210114 L01  .31-  .34+    210114 I52  .06-  .27-    
210113 I52  .04-  .32+    210114 L01  .17-  .09+    210114 474  .70+  .33+    
210113 I52  .15-  .33+    210114 L01  .57+  .05-    210114 474  .86+  .01-    
210113 I52  .03+  .15-    210114 H21  .07+  .04-    210114 474  .63-  .15+    
210113 104  1.1-  .14+    210114 H21  .09-  .17-    210114 474  .31-  .06+    

Ephemerides (geocentric):
Date (UTC) HH   RA              Dec         delta   r     elong  mag " sig PA
---- -- -- --  -------------   -----------  ------ ------ -----  --- ---- ---
2021 01 14 19  08 15 34.947   -06 32 27.61  .47699 1.4206 151.3 19.9 .558 175
2021 01 14 20  08 15 33.741   -06 30 23.32  .47697 1.4208 151.4 19.9 .641 175
2021 01 14 21  08 15 32.533   -06 28 18.95  .47695 1.4209 151.4 19.9 .727 175
2021 01 14 22  08 15 31.324   -06 26 14.49  .47693 1.4210 151.5 19.9 .817 175
2021 01 14 23  08 15 30.114   -06 24 09.96  .47692 1.4212 151.5 19.9 .910 175
2021 01 15 00  08 15 28.903   -06 22 05.34  .47690 1.4213 151.6 19.9 1.01 175
2021 01 15 01  08 15 27.691   -06 20 00.64  .47688 1.4214 151.6 19.9 1.11 175
2021 01 15 02  08 15 26.478   -06 17 55.87  .47687 1.4216 151.7 19.9 1.21 175
2021 01 15 03  08 15 25.263   -06 15 51.01  .47685 1.4217 151.7 19.9 1.32 175
2021 01 15 04  08 15 24.048   -06 13 46.08  .47684 1.4218 151.8 19.9 1.43 175
2021 01 15 05  08 15 22.831   -06 11 41.06  .47682 1.4220 151.8 19.9 1.54 175
2021 01 15 06  08 15 21.614   -06 09 35.97  .47681 1.4221 151.9 19.9 1.66 175
2021 01 15 07  08 15 20.395   -06 07 30.80  .47679 1.4222 151.9 19.9 1.78 175
2021 01 15 08  08 15 19.175   -06 05 25.55  .47678 1.4224 152.0 19.9 1.90 175
2021 01 15 09  08 15 17.955   -06 03 20.22  .47677 1.4225 152.1 19.9 2.03 175
2021 01 15 10  08 15 16.733   -06 01 14.82  .47675 1.4226 152.1 19.9 2.16 175
2021 01 15 11  08 15 15.510   -05 59 09.33  .47674 1.4227 152.2 19.9 2.30 175
2021 01 15 12  08 15 14.287   -05 57 03.77  .47673 1.4229 152.2 19.9 2.44 175
2021 01 15 13  08 15 13.062   -05 54 58.14  .47672 1.4230 152.3 19.9 2.58 175
2021 01 15 14  08 15 11.837   -05 52 52.42  .47671 1.4231 152.3 19.9 2.72 175
2021 01 15 15  08 15 10.610   -05 50 46.63  .47669 1.4233 152.4 19.9 2.87 175
2021 01 15 16  08 15 09.383   -05 48 40.77  .47668 1.4234 152.4 19.9 3.02 175
2021 01 15 17  08 15 08.154   -05 46 34.83  .47667 1.4235 152.5 19.9 3.18 175
2021 01 15 18  08 15 06.925   -05 44 28.81  .47666 1.4237 152.5 19.9 3.34 175
2021 01 15 19  08 15 05.695   -05 42 22.72  .47666 1.4238 152.6 19.9 3.50 175
2021 01 15 20  08 15 04.463   -05 40 16.56  .47665 1.4239 152.6 19.9 3.67 175
2021 01 15 21  08 15 03.231   -05 38 10.32  .47664 1.4241 152.7 19.9 3.84 174
2021 01 15 22  08 15 01.998   -05 36 04.01  .47663 1.4242 152.7 19.9 4.01 174
2021 01 15 23  08 15 00.765   -05 33 57.62  .47662 1.4243 152.8 19.9 4.19 174
2021 01 16 00  08 14 59.530   -05 31 51.16  .47662 1.4245 152.8 19.9 4.37 174
2021 01 16 01  08 14 58.294   -05 29 44.63  .47661 1.4246 152.9 19.9 4.55 174
2021 01 16 02  08 14 57.058   -05 27 38.02  .47660 1.4247 152.9 19.9 4.74 174
2021 01 16 03  08 14 55.821   -05 25 31.34  .47660 1.4249 153.0 19.9 4.93 174
2021 01 16 04  08 14 54.583   -05 23 24.59  .47659 1.4250 153.1 19.9 5.13 174
2021 01 16 05  08 14 53.344   -05 21 17.77  .47659 1.4252 153.1 19.9 5.33 174
2021 01 16 06  08 14 52.104   -05 19 10.88  .47658 1.4253 153.2 19.9 5.53 174
2021 01 16 07  08 14 50.864   -05 17 03.92  .47658 1.4254 153.2 19.9 5.73 174
2021 01 16 08  08 14 49.623   -05 14 56.88  .47657 1.4256 153.3 19.9 5.94 174
2021 01 16 09  08 14 48.381   -05 12 49.78  .47657 1.4257 153.3 19.9 6.16 174
2021 01 16 10  08 14 47.138   -05 10 42.60  .47657 1.4258 153.4 19.9 6.37 174
2021 01 16 11  08 14 45.894   -05 08 35.36  .47657 1.4260 153.4 19.9 6.59 174
2021 01 16 12  08 14 44.650   -05 06 28.04  .47656 1.4261 153.5 19.9 6.82 174
2021 01 16 13  08 14 43.405   -05 04 20.66  .47656 1.4262 153.5 19.9 7.04 174
2021 01 16 14  08 14 42.159   -05 02 13.21  .47656 1.4264 153.6 19.9 7.28 174
2021 01 16 15  08 14 40.913   -05 00 05.69  .47656 1.4265 153.6 19.9 7.51 174
2021 01 16 16  08 14 39.666   -04 57 58.10  .47656 1.4266 153.7 19.9 7.75 174
2021 01 16 17  08 14 38.418   -04 55 50.44  .47656 1.4268 153.7 19.9 7.99 174
2021 01 16 18  08 14 37.170   -04 53 42.72  .47656 1.4269 153.8 19.9 8.24 174